Location: Unspecified
(0.0000°N, 0.0000°E)
Time: 23:11:38
(UTC+00:00)

Envisat - Pass Details

Date: 12 July 2019
Orbit: 764 x 766 km, 98.1° (Epoch: 22 July)

Event Time Altitude Azimuth Distance (km) Brightness Sun altitude
Rises 19:08:06 0° 179° (S) 3,231 6.0 -14.4°
Reaches altitude 10° 19:10:29 10° 185° (S) 2,303 5.3 -15.0°
Maximum altitude 19:15:20 47° 258° (WSW) 1,012 4.0 -16.1°
Drops below altitude 10° 19:20:10 10° 331° (NNW) 2,293 6.2 -17.2°
Sets 19:22:32 0° 337° (NNW) 3,216 7.0 -17.8°
